Regional Weather Roundup
Issued by NWS Sioux Falls, SD

Home | Current Version | Previous Version | Text Only | Print | Product List | Glossary On
Versions: 1 2 3 4 5 6 7 8 9 10 11 12 13 14 15 16 17 18 19 20 21 22 23 24 25 26 27 28 29 30 31 32 33 34 35 36 37 38 39 40 41 42 43 44 45 46 47 48 49 50
000
ASUS43 KFSD 191510
RWRFSD

WEATHER ROUNDUP FOR SE SOUTH DAKOTA/SW MINNESOTA/NW IOWA
NATIONAL WEATHER SERVICE SIOUX FALLS SD
900 AM CST FRI JAN 19 2018

NOTE: "FAIR" INDICATES FEW OR NO CLOUDS BELOW 12,000 FEET WITH NO
SIGNIFICANT WEATHER AND OR OBSTRUCTIONS TO VISIBILITY.


SDZ038>040-050-052>070-191600-
SOUTHEAST SOUTH DAKOTA

CITY           SKY/WX    TMP DP  RH WIND       PRES   REMARKS
BROOKINGS      CLOUDY    29  25  85 S5        29.54F WCI  24
CHAMBERLAIN    MOCLDY    35  32  90 W3        29.53S
HURON          MOCLDY    29  27  92 S3        29.52S
MADISON        FAIR      32  32 100 SW12      29.53S WCI  23
MITCHELL       CLOUDY    34  29  82 S7        29.54F WCI  28
SIOUX FALLS    CLOUDY    34  28  79 S10       29.56F WCI  26
WINNER         FAIR      49  31  49 SW16G23   29.53F
YANKTON        CLOUDY    33  28  81 E5        29.58F WCI  29
$$

MNZ071-072-080-081-089-090-097-098-191600-
SOUTHWEST MINNESOTA

CITY           SKY/WX    TMP DP  RH WIND       PRES   REMARKS
FAIRMONT       CLOUDY    30  25  81 S15       29.60F WCI  19
JACKSON        CLOUDY    32  27  80 S17       29.58F WCI  21
LUVERNE        CLOUDY    28  25  86 S5        29.58S WCI  23
MARSHALL       CLOUDY    36  28  73 SW10      29.52S
MONTEVIDEO     CLOUDY    30  27  86 S7        29.52F WCI  23
PIPESTONE      CLOUDY    28  25  86 S8        29.55R WCI  20
REDWOOD FALLS  CLOUDY    31  27  85 SE6       29.54S WCI  25
WINDOM         CLOUDY    34  18  51 S12       29.55F WCI  25
WORTHINGTON    CLOUDY    32  26  78 S21       29.55F WCI  20
$$

IAZ001>003-012>014-020>022-031-032-NEZ013-014-SDZ071-191600-
NORTHWEST IOWA

CITY           SKY/WX    TMP DP  RH WIND       PRES   REMARKS
CHEROKEE       CLOUDY    33  26  74 S9        29.64F WCI  25
DENISON        CLOUDY    34  25  69 SW12G20   29.71F WCI  25
ESTHERVILLE    CLOUDY    26  24  92 S16       29.59F WCI  14
LE MARS        CLOUDY    32  25  74 S12       29.63S WCI  23
ORANGE CITY    CLOUDY    32  28  86 S14       29.61S WCI  22
SHELDON        CLOUDY    30  27  86 S14       29.58F WCI  20
SIOUX CITY     CLOUDY    30  25  81 E8        29.67R WCI  22
SPENCER        CLOUDY    32  25  75 S15       29.60F WCI  22
STORM LAKE     CLOUDY    34  25  69 SW15      29.65S WCI  24
$$

ABBREVIATIONS USED IN REMARKS
   TC - TEMPERATURE IN CELSIUS
  WCI - WIND CHILL INDEX
   HX - HEAT INDEX
  VSB - VISIBILITY





USA.gov is the U.S. government's official web portal to all federal, state and local government web resources and services.